Weather History for Redmond, OR

Change the Weather History Date:

Sunday, June 30, 2013

  Actual Average Record
Temperature  
Mean Temperature 76 °F 62 °F  
Max Temperature 97 °F 81 °F 97 °F (2008)
Min Temperature 54 °F 44 °F 31 °F (1973)
Degree Days  
Heating Degree Days 0 4  
Month to date heating degree days 185 217  
Since 1 June heating degree days 185 217  
Since 1 July heating degree days 6406 6713  
Cooling Degree Days 11 2  
Month to date cooling degree days 39 24  
Year to date cooling degree days 48 29  
Since 1 June cooling degree days 39 24  
Growing Degree Days 26 (Base 50)    
Moisture  
Dew Point 53 °F    
Average Humidity 53    
Maximum Humidity 83    
Minimum Humidity 22    
Precipitation  
Precipitation 0.00 in 0.01 in 0.45 in (1992)
Month to date precipitation 0.46 0.64  
Year to date precipitation 1.92 4.68  
Sea Level Pressure  
Sea Level Pressure 29.93 in    
Wind  
Wind Speed 9 mph (NNW)    
Max Wind Speed 21 mph    
Max Gust Speed 26 mph    
Visibility 10 miles    
Events      
T = Trace of Precipitation, MM = Missing Value Source: NWS Daily Summary

Daily Weather History Graph

Daily Weather History Graph

Search for Another Location

Airport:

Trip Planner

Search our weather history database for the weather conditions in past years. The results will help you decide how hot, cold, wet, or windy it might be!

Date:

Astronomy

Jun. 30, 2013 Rise Set
Actual Time 5:24 AM PDT 8:52 PM PDT
Civil Twilight 4:47 AM PDT 9:28 PM PDT
Nautical Twilight 4:00 AM PDT 10:16 PM PDT
Astronomical Twilight 2:58 AM PDT 11:17 PM PDT
Moon 12:36 AM PDT (6/30) 2:02 PM PDT (6/30)
Length of Visible Light 16h 40m
Length of Day
15h 27m
Last Quarter, 44% of the Moon is Illuminated
Jun 30
Last Quarter
Jul 8
New
Jul 15
First Quarter
Jul 22
Full
Jul 29
Last Quarter

Hourly Weather History & Observations

Time (PDT) Temp. Heat Index Dew Point Humidity Pressure Visibility Wind Dir Wind Speed Gust Speed Precip Events Conditions
12:56 AM 69.1 °F - 53.1 °F 57% 30.01 in 10.0 mi WNW 6.9 mph - N/A   Clear
1:56 AM 66.9 °F - 52.0 °F 59% 30.00 in 10.0 mi WNW 5.8 mph - N/A   Clear
2:56 AM 64.9 °F - 52.0 °F 63% 30.00 in 10.0 mi West 5.8 mph - N/A   Clear
3:56 AM 57.9 °F - 51.1 °F 78% 30.00 in 10.0 mi SSW 3.5 mph - N/A   Clear
4:56 AM 55.0 °F - 50.0 °F 83% 30.01 in 10.0 mi SSE 3.5 mph - N/A   Clear
5:56 AM 57.0 °F - 51.1 °F 81% 30.01 in 10.0 mi South 3.5 mph - N/A   Clear
6:56 AM 64.0 °F - 53.1 °F 67% 30.01 in 10.0 mi SSE 3.5 mph - N/A   Clear
7:56 AM 70.0 °F - 52.0 °F 53% 30.01 in 10.0 mi Calm Calm - N/A   Clear
8:56 AM 73.9 °F - 51.1 °F 45% 30.00 in 10.0 mi Variable 3.5 mph - N/A   Clear
9:56 AM 79.0 °F - 52.0 °F 39% 29.98 in 10.0 mi Variable 3.5 mph - N/A   Clear
10:56 AM 84.9 °F 83.2 °F 53.1 °F 33% 29.96 in 10.0 mi North 9.2 mph - N/A   Clear
11:56 AM 88.0 °F 85.7 °F 53.1 °F 30% 29.94 in 10.0 mi NNW 6.9 mph - N/A   Clear
12:56 PM 90.0 °F 87.5 °F 53.1 °F 28% 29.91 in 10.0 mi North 11.5 mph 16.1 mph N/A   Clear
1:56 PM 93.0 °F - 52.0 °F 25% 29.89 in 10.0 mi NW 13.8 mph 19.6 mph N/A   Clear
2:56 PM 95.0 °F 92.5 °F 53.1 °F 24% 29.87 in 10.0 mi NNW 15.0 mph 20.7 mph N/A   Clear
3:56 PM 97.0 °F - 52.0 °F 22% 29.86 in 10.0 mi NNW 18.4 mph 23.0 mph N/A   Clear
4:56 PM 96.1 °F - 51.1 °F 22% 29.84 in 10.0 mi NNW 17.3 mph 26.5 mph N/A   Clear
5:56 PM 96.1 °F - 51.1 °F 22% 29.83 in 10.0 mi NNW 15.0 mph - N/A   Clear
6:56 PM 93.0 °F 90.8 °F 54.0 °F 27% 29.82 in 10.0 mi North 17.3 mph 24.2 mph N/A   Clear
7:56 PM 90.0 °F 87.7 °F 54.0 °F 29% 29.83 in 10.0 mi North 16.1 mph - N/A   Clear
8:56 PM 86.0 °F 84.2 °F 54.0 °F 33% 29.86 in 10.0 mi North 10.4 mph - N/A   Clear
9:56 PM 84.0 °F 82.9 °F 55.0 °F 37% 29.88 in 10.0 mi North 10.4 mph - N/A   Clear
10:56 PM 78.1 °F - 55.9 °F 46% 29.88 in 10.0 mi NW 6.9 mph - N/A   Clear
11:56 PM 77.0 °F - 55.0 °F 47% 29.88 in 10.0 mi NNW 8.1 mph - N/A   Clear